Grand Rapids, MN

7:33 AM CDT on September 20, 2017 (GMT -0500)
Grand Rapids-Itasca County-Newstrom Field

Weather History for KGPZ - May, 2013

Change the Weather History Date:

Monday, May 13, 2013

  Actual Average Record
Temperature  
Mean Temperature 47 °F -  
Max Temperature 62 °F 66 °F 89 °F (1977)
Min Temperature 32 °F 38 °F 18 °F (1953)
Degree Days  
Heating Degree Days 18    
Moisture  
Dew Point 26 °F    
Average Humidity 44    
Maximum Humidity 66    
Minimum Humidity 32    
Precipitation  
Precipitation 0.00 in - - ()
Sea Level Pressure  
Sea Level Pressure 29.90 in    
Wind  
Wind Speed 9 mph (SSE)    
Max Wind Speed 24 mph    
Max Gust Speed 31 mph    
Visibility 10 miles    
Events      
Averages and records for this station are not official NWS values.
T = Trace of Precipitation, MM = Missing Value Source: NWS Daily Summary

Daily Weather History Graph

Daily Weather History Graph

Search for Another Location

Airport or City:

Trip Planner

Search our weather history database for the weather conditions in past years. The results will help you decide how hot, cold, wet, or windy it might be!

Date:

Astronomy

May. 13, 2013 Rise Set
Actual Time 5:40 AM CDT 8:41 PM CDT
Civil Twilight 5:04 AM CDT 9:17 PM CDT
Nautical Twilight 4:17 AM CDT 10:04 PM CDT
Astronomical Twilight 3:21 AM CDT 11:00 PM CDT
Moon 8:25 AM CDT (5/13) 11:51 PM CDT (5/13)
Length of Visible Light 16h 13m
Length of Day
15h 01m
Waxing Crescent, 12% of the Moon is Illuminated
May 13
Waxing Crescent
May 17
First Quarter
May 24
Full
May 31
Last Quarter
Jun 8
New

Hourly Weather History & Observations

Time (CDT) Temp. Windchill Dew Point Humidity Pressure Visibility Wind Dir Wind Speed Gust Speed Precip Events Conditions
12:15 AM 37.4 °F 32.8 °F 15.8 °F 41% 30.10 in 10.0 mi ESE 5.8 mph - N/A   Clear
12:35 AM 37.4 °F 33.8 °F 15.8 °F 41% 30.10 in 10.0 mi ESE 4.6 mph - N/A   Clear
12:55 AM 37.4 °F 32.8 °F 15.8 °F 41% 30.09 in 10.0 mi ESE 5.8 mph - N/A   Clear
1:15 AM 35.6 °F 31.7 °F 14.0 °F 41% 30.09 in 10.0 mi SE 4.6 mph - N/A   Clear
1:35 AM 35.6 °F 30.7 °F 14.0 °F 41% 30.09 in 10.0 mi SSE 5.8 mph - N/A   Clear
1:55 AM 33.8 °F 29.6 °F 14.0 °F 44% 30.09 in 10.0 mi South 4.6 mph - N/A   Clear
2:15 AM 33.8 °F 28.6 °F 15.8 °F 48% 30.08 in 10.0 mi SE 5.8 mph - N/A   Clear
2:35 AM 33.8 °F 28.6 °F 14.0 °F 44% 30.08 in 10.0 mi SE 5.8 mph - N/A   Clear
2:55 AM 33.8 °F 28.6 °F 14.0 °F 44% 30.07 in 10.0 mi SE 5.8 mph - N/A   Clear
3:15 AM 32.0 °F 25.6 °F 15.8 °F 51% 30.07 in 10.0 mi SSE 6.9 mph - N/A   Clear
3:35 AM 32.0 °F 26.4 °F 15.8 °F 51% 30.08 in 10.0 mi SSE 5.8 mph - N/A   Clear
3:55 AM 33.8 °F 28.6 °F 15.8 °F 48% 30.07 in 10.0 mi SE 5.8 mph - N/A   Clear
4:15 AM 33.8 °F 27.0 °F 15.8 °F 48% 30.07 in 10.0 mi SE 8.1 mph - N/A   Clear
4:35 AM 33.8 °F 27.7 °F 15.8 °F 48% 30.07 in 10.0 mi SSE 6.9 mph - N/A   Clear
4:55 AM 33.8 °F 27.0 °F 15.8 °F 48% 30.06 in 10.0 mi SSE 8.1 mph - N/A   Clear
5:15 AM 33.8 °F 27.7 °F 15.8 °F 48% 30.06 in 10.0 mi SSE 6.9 mph - N/A   Clear
5:35 AM 33.8 °F 27.7 °F 15.8 °F 48% 30.06 in 10.0 mi SSE 6.9 mph - N/A   Clear
5:55 AM 33.8 °F 27.7 °F 15.8 °F 48% 30.06 in 10.0 mi SSE 6.9 mph - N/A   Clear
6:15 AM 33.8 °F 28.6 °F 15.8 °F 48% 30.06 in 10.0 mi SE 5.8 mph - N/A   Clear
6:35 AM 33.8 °F 28.6 °F 17.6 °F 52% 30.06 in 10.0 mi SSE 5.8 mph - N/A   Clear
6:55 AM 35.6 °F 30.7 °F 17.6 °F 48% 30.06 in 10.0 mi SE 5.8 mph - N/A   Clear
7:15 AM 35.6 °F 29.9 °F 17.6 °F 48% 30.06 in 10.0 mi SSE 6.9 mph - N/A   Clear
7:35 AM 37.4 °F 31.4 °F 17.6 °F 45% 30.06 in 10.0 mi SSE 8.1 mph - N/A   Clear
7:55 AM 37.4 °F 29.8 °F 19.4 °F 48% 30.05 in 10.0 mi SSE 11.5 mph 17.3 mph N/A   Clear
8:15 AM 39.2 °F 33.0 °F 19.4 °F 45% 30.05 in 10.0 mi SSE 9.2 mph 17.3 mph N/A   Clear
8:35 AM 39.2 °F 33.0 °F 19.4 °F 45% 30.04 in 10.0 mi SSE 9.2 mph 16.1 mph N/A   Clear
8:55 AM 41.0 °F 33.9 °F 19.4 °F 42% 30.03 in 10.0 mi SE 12.7 mph - N/A   Partly Cloudy
9:15 AM 44.6 °F 39.2 °F 21.2 °F 39% 30.01 in 10.0 mi SE 10.4 mph 17.3 mph N/A   Mostly Cloudy
9:35 AM 44.6 °F 38.1 °F 21.2 °F 39% 30.00 in 10.0 mi SSE 13.8 mph 18.4 mph N/A   Scattered Clouds
9:55 AM 46.4 °F 41.1 °F 21.2 °F 37% 29.99 in 10.0 mi SSE 11.5 mph 19.6 mph N/A   Partly Cloudy
10:15 AM 48.2 °F - 21.2 °F 34% 29.97 in 10.0 mi SSE 13.8 mph 17.3 mph N/A   Scattered Clouds
10:35 AM 48.2 °F - 21.2 °F 34% 29.96 in 10.0 mi SSE 13.8 mph 20.7 mph N/A   Mostly Cloudy
10:55 AM 48.2 °F - 19.4 °F 32% 29.96 in 10.0 mi SSE 15.0 mph - N/A   Overcast
11:15 AM 48.2 °F - 21.2 °F 34% 29.94 in 10.0 mi SSE 11.5 mph 23.0 mph N/A   Overcast
11:35 AM 46.4 °F 40.7 °F 26.6 °F 46% 29.94 in 10.0 mi SSE 12.7 mph - N/A   Overcast
11:55 AM 46.4 °F 41.9 °F 26.6 °F 46% 29.94 in 10.0 mi SSE 9.2 mph 19.6 mph N/A   Overcast
12:15 PM 46.4 °F 39.8 °F 28.4 °F 50% 29.93 in 10.0 mi SSE 16.1 mph - N/A   Overcast
12:35 PM 48.2 °F - 28.4 °F 46% 29.92 in 10.0 mi SE 12.7 mph 20.7 mph N/A   Overcast
12:55 PM 46.4 °F 41.1 °F 30.2 °F 53% 29.91 in 10.0 mi SSE 11.5 mph - N/A   Overcast
1:15 PM 44.6 °F 39.7 °F 33.8 °F 66% 29.90 in 10.0 mi SE 9.2 mph - N/A   Overcast
1:35 PM 46.4 °F 41.1 °F 33.8 °F 62% 29.90 in 10.0 mi SSE 11.5 mph 16.1 mph N/A   Overcast
1:55 PM 48.2 °F - 32.0 °F 54% 29.88 in 10.0 mi SSE 15.0 mph 24.2 mph N/A   Overcast
2:15 PM 50.0 °F - 30.2 °F 47% 29.85 in 10.0 mi SSE 17.3 mph 25.3 mph N/A   Overcast
2:35 PM 51.8 °F - 32.0 °F 47% 29.83 in 10.0 mi SE 15.0 mph 21.9 mph N/A   Mostly Cloudy
3:35 PM 57.2 °F - 33.8 °F 41% 29.79 in 10.0 mi SSE 20.7 mph 31.1 mph N/A   Clear
3:55 PM 57.2 °F - 35.6 °F 44% 29.78 in 10.0 mi SSE 21.9 mph 31.1 mph N/A   Clear
4:15 PM 59.0 °F - 35.6 °F 42% 29.78 in 10.0 mi SSE 24.2 mph 31.1 mph N/A   Clear
4:35 PM 60.8 °F - 35.6 °F 39% 29.77 in 10.0 mi SSE 20.7 mph 25.3 mph N/A   Clear
4:55 PM 60.8 °F - 35.6 °F 39% 29.77 in 10.0 mi SSE 19.6 mph 28.8 mph N/A   Clear
5:15 PM 62.6 °F - 35.6 °F 37% 29.75 in 10.0 mi SSE 21.9 mph 29.9 mph N/A   Clear
5:35 PM 62.6 °F - 35.6 °F 37% 29.74 in 10.0 mi South 17.3 mph 25.3 mph N/A   Mostly Cloudy
5:55 PM 62.6 °F - 35.6 °F 37% 29.74 in 10.0 mi South 21.9 mph 27.6 mph N/A   Scattered Clouds
6:35 PM 62.6 °F - 37.4 °F 39% 29.70 in 10.0 mi South 20.7 mph 28.8 mph N/A   Clear
6:55 PM 62.6 °F - 37.4 °F 39% 29.69 in 10.0 mi South 16.1 mph 23.0 mph N/A   Clear
7:15 PM 62.6 °F - 37.4 °F 39% 29.69 in 10.0 mi SSE 13.8 mph 18.4 mph N/A   Clear
7:35 PM 62.6 °F - 37.4 °F 39% 29.68 in 10.0 mi SSE 13.8 mph 19.6 mph N/A   Clear
7:55 PM 60.8 °F - 37.4 °F 42% 29.67 in 10.0 mi SSE 16.1 mph 20.7 mph N/A   Clear
8:15 PM 60.8 °F - 35.6 °F 39% 29.67 in 10.0 mi SSE 9.2 mph 18.4 mph N/A   Clear
8:35 PM 60.8 °F - 35.6 °F 39% 29.67 in 10.0 mi SE 6.9 mph - N/A   Partly Cloudy
8:55 PM 59.0 °F - 35.6 °F 42% 29.67 in 10.0 mi SSE 9.2 mph - N/A   Clear
9:15 PM 57.2 °F - 35.6 °F 44% 29.67 in 10.0 mi SSE 13.8 mph - N/A   Clear
9:35 PM 57.2 °F - 35.6 °F 44% 29.68 in 10.0 mi SE 10.4 mph - N/A   Clear
9:55 PM 57.2 °F - 35.6 °F 44% 29.69 in 10.0 mi SSE 9.2 mph - N/A   Clear
10:15 PM 55.4 °F - 35.6 °F 47% 29.68 in 10.0 mi SSE 13.8 mph - N/A   Clear
10:35 PM 55.4 °F - 35.6 °F 47% 29.68 in 10.0 mi SSE 15.0 mph - N/A   Clear
10:55 PM 55.4 °F - 35.6 °F 47% 29.68 in 10.0 mi South 11.5 mph - N/A   Clear
11:15 PM 55.4 °F - 35.6 °F 47% 29.68 in 10.0 mi SSE 6.9 mph - N/A   Clear
11:35 PM 53.6 °F - 35.6 °F 51% 29.69 in 10.0 mi SSE 3.5 mph - N/A   Clear
11:55 PM 53.6 °F - 35.6 °F 51% 29.68 in 10.0 mi SSE 9.2 mph - N/A   Clear